When you browse on this site, cookies collect data to enhance your experience and personalize the content and advertising you see.
Visit our Privacy Policy to learn more. By continuing to use the site, you agree to this use of cookies and data.
  • en France
  • Liste des pays
  • À 7 jours
  • Température de l'eau
  • Carte satellitaire
  • Carte météo
  • Widgets météo
  • user-avatar
    Se connecter

    Météo par heure à Rangpur

    Ce jour, 23 Mars, Samedi

    Heure Température Précipitation Vent Pression Humidité
    00:00 +28°C° 0 mm 3 m/s 754 mmHg 55%
    01:00 +27°C° 0 mm 3 m/s 754 mmHg 61%
    02:00 +27°C° 0 mm 2 m/s 753 mmHg 66%
    03:00 +26°C° 0 mm 2 m/s 753 mmHg 72%
    04:00 +25°C° 0 mm 2 m/s 754 mmHg 75%
    05:00 +25°C° 0 mm 2 m/s 754 mmHg 78%
    06:00 +24°C° 0 mm 2 m/s 754 mmHg 80%
    07:00 +26°C° 0 mm 2 m/s 755 mmHg 72%
    08:00 +27°C° 0 mm 2 m/s 755 mmHg 63%
    09:00 +29°C° 0 mm 2 m/s 755 mmHg 55%
    10:00 +31°C° 0 mm 3 m/s 755 mmHg 42%
    11:00 +34°C° 0 mm 5 m/s 755 mmHg 29%
    12:00 +36°C° 0 mm 6 m/s 754 mmHg 16%
    13:00 +38°C° 0 mm 6 m/s 753 mmHg 14%
    14:00 +38°C° 0 mm 6 m/s 753 mmHg 13%
    15:00 +39°C° 0 mm 6 m/s 752 mmHg 11%
    16:00 +36°C° 0 mm 5 m/s 752 mmHg 12%
    17:00 +35°C° 0 mm 5 m/s 752 mmHg 13%
    18:00 +34°C° 0 mm 4 m/s 752 mmHg 14%
    19:00 +33°C° 0 mm 3 m/s 752 mmHg 14%
    20:00 +31°C° 0 mm 3 m/s 753 mmHg 14%
    21:00 +30°C° 0 mm 3 m/s 754 mmHg 15%
    22:00 +29°C° 0 mm 3 m/s 754 mmHg 16%
    23:00 +28°C° 0 mm 3 m/s 754 mmHg 17%

    Demain, 24 Mars, Dimanche

    Heure Température Précipitation Vent Pression Humidité
    00:00 +27°C° 0 mm 2 m/s 754 mmHg 18%
    01:00 +27°C° 0 mm 2 m/s 754 mmHg 19%
    02:00 +26°C° 0 mm 1 m/s 753 mmHg 21%
    03:00 +25°C° 0 mm 1 m/s 753 mmHg 22%
    04:00 +25°C° 0 mm 1 m/s 753 mmHg 26%
    05:00 +24°C° 0 mm 1 m/s 753 mmHg 29%
    06:00 +23°C° 0 mm 2 m/s 754 mmHg 32%
    07:00 +25°C° 0 mm 2 m/s 754 mmHg 31%
    08:00 +27°C° 0 mm 3 m/s 755 mmHg 30%
    09:00 +28°C° 0 mm 3 m/s 755 mmHg 29%
    10:00 +30°C° 0 mm 3 m/s 755 mmHg 25%
    11:00 +32°C° 0 mm 2 m/s 755 mmHg 21%
    12:00 +35°C° 0 mm 2 m/s 755 mmHg 17%
    13:00 +35°C° 0 mm 2 m/s 754 mmHg 16%
    14:00 +36°C° 0 mm 2 m/s 753 mmHg 15%
    15:00 +37°C° 0 mm 2 m/s 752 mmHg 14%
    16:00 +36°C° 0 mm 2 m/s 752 mmHg 15%
    17:00 +35°C° 0 mm 2 m/s 752 mmHg 16%
    18:00 +34°C° 0 mm 1 m/s 752 mmHg 18%
    19:00 +32°C° 0 mm 1 m/s 753 mmHg 19%
    20:00 +31°C° 0 mm 1 m/s 753 mmHg 19%
    21:00 +30°C° 0 mm 1 m/s 754 mmHg 20%
    22:00 +29°C° 0 mm 1 m/s 754 mmHg 23%
    23:00 +28°C° 0 mm 2 m/s 754 mmHg 25%

    Après-demain, 25 Mars, Lundi

    Heure Température Précipitation Vent Pression Humidité
    00:00 +27°C° 0 mm 3 m/s 754 mmHg 27%
    01:00 +27°C° 0 mm 3 m/s 754 mmHg 30%
    02:00 +26°C° 0 mm 3 m/s 753 mmHg 33%
    03:00 +25°C° 0 mm 3 m/s 753 mmHg 35%
    04:00 +25°C° 0 mm 3 m/s 754 mmHg 37%
    05:00 +24°C° 0 mm 2 m/s 754 mmHg 39%
    06:00 +24°C° 0 mm 2 m/s 754 mmHg 41%
    07:00 +25°C° 0 mm 3 m/s 755 mmHg 38%
    08:00 +27°C° 0 mm 3 m/s 755 mmHg 34%
    09:00 +29°C° 0 mm 4 m/s 756 mmHg 31%
    10:00 +32°C° 0 mm 4 m/s 756 mmHg 27%
    11:00 +34°C° 0 mm 4 m/s 756 mmHg 24%
    12:00 +36°C° 0 mm 3 m/s 755 mmHg 20%
    13:00 +36°C° 0 mm 3 m/s 754 mmHg 18%
    14:00 +37°C° 0 mm 3 m/s 754 mmHg 17%
    15:00 +38°C° 0 mm 2 m/s 753 mmHg 15%
    16:00 +37°C° 0 mm 2 m/s 753 mmHg 17%
    17:00 +35°C° 0 mm 1 m/s 753 mmHg 18%
    18:00 +34°C° 0 mm 1 m/s 753 mmHg 20%
    19:00 +33°C° 0 mm 1 m/s 753 mmHg 20%
    20:00 +32°C° 0 mm 1 m/s 754 mmHg 21%
    21:00 +31°C° 0 mm 1 m/s 755 mmHg 21%
    22:00 +30°C° 0 mm 2 m/s 755 mmHg 24%
    23:00 +29°C° 0 mm 2 m/s 755 mmHg 26%

    26 Mars, Mardi

    Heure Température Précipitation Vent Pression Humidité
    00:00 +28°C° 0 mm 3 m/s 755 mmHg 29%
    01:00 +28°C° 0 mm 3 m/s 754 mmHg 32%
    02:00 +27°C° 0 mm 3 m/s 754 mmHg 34%
    03:00 +26°C° 0 mm 2 m/s 753 mmHg 37%
    04:00 +26°C° 0 mm 3 m/s 754 mmHg 39%
    05:00 +25°C° 0 mm 3 m/s 754 mmHg 41%
    06:00 +25°C° 0 mm 4 m/s 754 mmHg 43%
    07:00 +27°C° 0 mm 4 m/s 755 mmHg 39%
    08:00 +28°C° 0 mm 4 m/s 756 mmHg 36%
    09:00 +30°C° 0 mm 4 m/s 757 mmHg 33%
    10:00 +33°C° 0 mm 3 m/s 757 mmHg 30%
    11:00 +35°C° 0 mm 3 m/s 756 mmHg 26%
    12:00 +36°C° 0 mm 3 m/s 756 mmHg 23%
    13:00 +37°C° 0 mm 3 m/s 755 mmHg 21%
    14:00 +38°C° 0 mm 2 m/s 755 mmHg 19%
    15:00 +38°C° 0 mm 2 m/s 754 mmHg 18%
    16:00 +38°C° 0 mm 2 m/s 753 mmHg 19%
    17:00 +36°C° 0 mm 1 m/s 753 mmHg 20%
    18:00 +35°C° 0 mm 1 m/s 753 mmHg 21%
    19:00 +35°C° 0 mm 1 m/s 754 mmHg 22%
    20:00 +34°C° 0 mm 1 m/s 754 mmHg 22%
    21:00 +33°C° 0 mm 1 m/s 755 mmHg 23%
    22:00 +32°C° 0 mm 1 m/s 755 mmHg 25%
    23:00 +31°C° 0 mm 1 m/s 756 mmHg 28%

    27 Mars, Mercredi

    Heure Température Précipitation Vent Pression Humidité
    00:00 +31°C° 0 mm 1 m/s 756 mmHg 30%
    01:00 +30°C° 0 mm 1 m/s 755 mmHg 31%
    02:00 +29°C° 0 mm 1 m/s 755 mmHg 33%
    03:00 +28°C° 0 mm 1 m/s 755 mmHg 34%
    04:00 +27°C° 0.1 mm 1 m/s 755 mmHg 36%
    05:00 +27°C° 0.1 mm 2 m/s 756 mmHg 39%
    06:00 +26°C° 0.1 mm 3 m/s 756 mmHg 41%
    07:00 +28°C° 0.1 mm 3 m/s 757 mmHg 39%
    08:00 +29°C° 0.1 mm 3 m/s 757 mmHg 37%
    09:00 +32°C° 0.1 mm 4 m/s 758 mmHg 35%
    10:00 +33°C° 0.1 mm 3 m/s 757 mmHg 32%
    11:00 +34°C° 0.1 mm 3 m/s 757 mmHg 30%
    12:00 +35°C° 0.1 mm 2 m/s 756 mmHg 27%
    13:00 +36°C° 0 mm 2 m/s 755 mmHg 26%
    14:00 +36°C° 0 mm 2 m/s 754 mmHg 25%
    15:00 +37°C° 0 mm 2 m/s 753 mmHg 24%
    16:00 +36°C° 0 mm 2 m/s 753 mmHg 26%
    17:00 +36°C° 0 mm 3 m/s 753 mmHg 27%
    18:00 +35°C° 0 mm 3 m/s 753 mmHg 28%
    19:00 +34°C° 0 mm 2 m/s 754 mmHg 29%
    20:00 +34°C° 0 mm 2 m/s 754 mmHg 30%
    21:00 +32°C° 0 mm 2 m/s 754 mmHg 31%
    22:00 +31°C° 0 mm 2 m/s 754 mmHg 32%
    23:00 +30°C° 0 mm 2 m/s 754 mmHg 33%

    28 Mars, Jeudi

    Heure Température Précipitation Vent Pression Humidité
    00:00 +30°C° 0 mm 1 m/s 754 mmHg 34%
    01:00 +29°C° 0 mm 2 m/s 754 mmHg 37%
    02:00 +28°C° 0 mm 2 m/s 754 mmHg 40%
    03:00 +27°C° 0 mm 3 m/s 754 mmHg 43%
    04:00 +27°C° 0 mm 3 m/s 754 mmHg 47%
    05:00 +26°C° 0 mm 3 m/s 754 mmHg 51%
    06:00 +26°C° 0 mm 3 m/s 755 mmHg 54%
    07:00 +27°C° 0 mm 4 m/s 755 mmHg 51%
    08:00 +28°C° 0 mm 4 m/s 756 mmHg 48%
    09:00 +30°C° 0 mm 5 m/s 756 mmHg 45%
    10:00 +32°C° 0 mm 4 m/s 756 mmHg 41%
    11:00 +34°C° 0 mm 4 m/s 756 mmHg 37%
    12:00 +35°C° 0 mm 3 m/s 756 mmHg 33%
    13:00 +36°C° 0 mm 2 m/s 755 mmHg 30%
    14:00 +36°C° 0 mm 1 m/s 754 mmHg 27%
    15:00 +35°C° 0 mm 0 m/s 753 mmHg 24%
    16:00 +34°C° 0 mm 0 m/s 753 mmHg 25%
    17:00 +34°C° 0 mm 0 m/s 753 mmHg 26%
    18:00 +33°C° 0 mm 0 m/s 753 mmHg 27%
    19:00 +34°C° 0 mm 1 m/s 754 mmHg 29%
    20:00 +34°C° 0 mm 2 m/s 755 mmHg 30%
    21:00 +33°C° 0 mm 3 m/s 755 mmHg 31%
    22:00 +31°C° 0 mm 3 m/s 755 mmHg 34%
    23:00 +30°C° 0 mm 3 m/s 755 mmHg 36%
    Voir plus